Algona, IA

6:13 AM CDT on July 25, 2016 (GMT -0500)
Algona Municipal

Weather History for KAXA - March, 2011

Change the Weather History Date:

Friday, March 4, 2011

  Actual Average Record
Temperature  
Mean Temperature 28 °F -  
Max Temperature 33 °F 29 °F 50 °F (2009)
Min Temperature 23 °F 16 °F -4 °F (2002)
Degree Days  
Heating Degree Days 36    
Moisture  
Dew Point 30 °F    
Average Humidity 98    
Maximum Humidity 100    
Minimum Humidity 93    
Precipitation  
Precipitation 0.00 in - - ()
Sea Level Pressure  
Sea Level Pressure 30.05 in    
Wind  
Wind Speed 12 mph (North)    
Max Wind Speed 23 mph    
Max Gust Speed 28 mph    
Visibility 2 miles    
Events      
Averages and records for this station are not official NWS values.
T = Trace of Precipitation, MM = Missing Value Source: NWS Daily Summary

Daily Weather History Graph

Daily Weather History Graph

Search for Another Location

Airport or City:

Trip Planner

Search our weather history database for the weather conditions in past years. The results will help you decide how hot, cold, wet, or windy it might be!

Date:

Astronomy

Mar. 04, 2011 Rise Set
Actual Time 6:48 AM CST 6:09 PM CST
Civil Twilight 6:20 AM CST 6:38 PM CST
Nautical Twilight 5:47 AM CST 7:11 PM CST
Astronomical Twilight 5:14 AM CST 7:44 PM CST
Moon 6:20 AM CST (3/4) 6:22 PM CST (3/4)
Length of Visible Light 12h 18m
Length of Day
11h 21m
Waning Crescent, 0% of the Moon is Illuminated
Mar 4
Waning Crescent
Mar 4
New
Mar 12
First Quarter
Mar 19
Full
Mar 26
Last Quarter

Hourly Weather History & Observations

Time (CST) Temp. Windchill Dew Point Humidity Pressure Visibility Wind Dir Wind Speed Gust Speed Precip Events Conditions
12:15 AM 33.8 °F 28.6 °F 33.8 °F 100% 29.95 in 3.5 mi NNE 5.8 mph - N/A   Overcast
12:35 AM 33.8 °F 29.6 °F 33.8 °F 100% 29.94 in 3.5 mi ENE 4.6 mph - N/A   Overcast
12:55 AM 33.8 °F 29.6 °F 33.8 °F 100% 29.95 in 3.5 mi NNE 4.6 mph - N/A   Overcast
1:15 AM 33.8 °F 28.6 °F 33.8 °F 100% 29.94 in 2.5 mi North 5.8 mph - N/A   Mostly Cloudy
1:35 AM 33.8 °F 26.4 °F 33.8 °F 100% 29.94 in 2.5 mi North 9.2 mph - N/A   Scattered Clouds
1:55 AM 33.8 °F 26.4 °F 33.8 °F 100% 29.94 in 3.0 mi North 9.2 mph - N/A   Clear
2:15 AM 33.8 °F 27.7 °F 33.8 °F 100% 29.94 in 3.0 mi NNE 6.9 mph - N/A   Clear
2:35 AM 33.8 °F 26.4 °F 33.8 °F 100% 29.94 in 3.0 mi North 9.2 mph - N/A   Clear
2:55 AM 33.8 °F 25.3 °F 33.8 °F 100% 29.95 in 2.5 mi North 11.5 mph - N/A   Clear
3:15 AM 33.8 °F 26.4 °F 33.8 °F 100% 29.95 in 3.0 mi North 9.2 mph - N/A   Clear
3:35 AM 32.0 °F 24.2 °F 32.0 °F 100% 29.95 in 3.0 mi North 9.2 mph - N/A   Clear
3:55 AM 32.0 °F 23.6 °F 32.0 °F 100% 29.95 in 3.0 mi North 10.4 mph - N/A   Clear
4:15 AM 32.0 °F 23.0 °F 32.0 °F 100% 29.96 in 3.0 mi North 11.5 mph - N/A   Clear
4:35 AM 32.0 °F 21.6 °F 32.0 °F 100% 29.97 in 2.5 mi North 15.0 mph - N/A   Scattered Clouds
4:55 AM 32.0 °F 23.0 °F 32.0 °F 100% 29.97 in 2.5 mi North 11.5 mph - N/A   Unknown
5:15 AM 32.0 °F 23.6 °F 32.0 °F 100% 29.98 in 2.5 mi North 10.4 mph 17.3 mph N/A   Scattered Clouds
5:35 AM 33.8 °F 25.3 °F 32.0 °F 93% 29.99 in 3.0 mi North 11.5 mph 17.3 mph N/A   Overcast
5:55 AM 33.8 °F 25.3 °F 32.0 °F 93% 29.99 in 3.5 mi North 11.5 mph - N/A   Overcast
6:15 AM 33.8 °F 25.3 °F 32.0 °F 93% 30.00 in 3.0 mi North 11.5 mph - N/A   Overcast
6:35 AM 32.0 °F 22.1 °F 32.0 °F 100% 30.01 in 3.5 mi North 13.8 mph 19.6 mph N/A   Overcast
6:55 AM 32.0 °F 21.6 °F 32.0 °F 100% 30.02 in 3.0 mi North 15.0 mph 20.7 mph N/A   Overcast
7:15 AM 32.0 °F 20.8 °F 32.0 °F 100% 30.02 in 2.5 mi North 17.3 mph 23.0 mph N/A   Overcast
7:35 AM 32.0 °F 22.1 °F 32.0 °F 100% 30.02 in 2.5 mi North 13.8 mph 23.0 mph N/A   Overcast
7:55 AM 32.0 °F 22.1 °F 32.0 °F 100% 30.03 in 1.8 mi North 13.8 mph 25.3 mph N/A   Overcast
8:15 AM 32.0 °F 21.2 °F 32.0 °F 100% 30.04 in 1.2 mi North 16.1 mph 25.3 mph N/A   Overcast
8:35 AM 32.0 °F 20.8 °F 32.0 °F 100% 30.05 in 0.8 mi North 17.3 mph 24.2 mph N/A   Overcast
8:55 AM 32.0 °F 21.6 °F 32.0 °F 100% 30.05 in 0.8 mi North 15.0 mph 25.3 mph N/A   Overcast
9:15 AM 32.0 °F 21.2 °F 30.2 °F 93% 30.06 in 1.0 mi North 16.1 mph 25.3 mph N/A   Overcast
9:35 AM 32.0 °F 20.8 °F 32.0 °F 100% 30.07 in 1.0 mi North 17.3 mph 20.7 mph N/A   Overcast
9:55 AM 32.0 °F 21.6 °F 30.2 °F 93% 30.07 in 1.2 mi North 15.0 mph 23.0 mph N/A   Overcast
10:15 AM 32.0 °F 20.8 °F 30.2 °F 93% 30.08 in 1.2 mi North 17.3 mph 23.0 mph N/A   Overcast
10:35 AM 32.0 °F 21.6 °F 30.2 °F 93% 30.08 in 1.2 mi North 15.0 mph 20.7 mph N/A   Overcast
10:55 AM 32.0 °F 21.6 °F 30.2 °F 93% 30.10 in 1.5 mi North 15.0 mph 21.9 mph N/A   Overcast
11:15 AM 32.0 °F 22.1 °F 30.2 °F 93% 30.10 in 1.5 mi North 13.8 mph 23.0 mph N/A   Overcast
11:35 AM 30.2 °F 19.3 °F 30.2 °F 100% 30.11 in 1.5 mi North 15.0 mph 23.0 mph N/A   Overcast
11:55 AM 30.2 °F 18.9 °F 30.2 °F 100% 30.11 in 1.5 mi North 16.1 mph 21.9 mph N/A   Overcast
12:15 PM 30.2 °F 19.3 °F 30.2 °F 100% 30.12 in 1.5 mi North 15.0 mph 21.9 mph N/A   Overcast
12:35 PM 30.2 °F 18.1 °F 30.2 °F 100% 30.12 in 1.5 mi NNW 18.4 mph 23.0 mph N/A   Overcast
12:55 PM 28.4 °F 16.2 °F 28.4 °F 100% 30.13 in 0.8 mi North 17.3 mph 23.0 mph N/A   Overcast
1:15 PM 28.4 °F 16.2 °F 26.6 °F 93% 30.13 in 0.8 mi North 17.3 mph 21.9 mph N/A   Overcast
1:35 PM 26.6 °F 14.7 °F 26.6 °F 100% 30.13 in 0.8 mi NNW 15.0 mph 23.0 mph N/A   Overcast
1:55 PM 26.6 °F 13.8 °F 26.6 °F 100% 30.12 in 1.5 mi North 17.3 mph 24.2 mph N/A   Overcast
2:15 PM 26.6 °F 12.7 °F 24.8 °F 93% 30.12 in 1.5 mi NNW 20.7 mph 25.3 mph N/A   Overcast
2:35 PM 24.8 °F 11.1 °F 24.8 °F 100% 30.12 in 1.5 mi NNW 18.4 mph 27.6 mph N/A   Overcast
2:55 PM 24.8 °F 10.7 °F 24.8 °F 100% 30.11 in 1.5 mi North 19.6 mph 26.5 mph N/A   Overcast
3:15 PM 24.8 °F 9.6 °F 23.0 °F 93% 30.11 in 1.2 mi North 23.0 mph 27.6 mph N/A   Overcast
3:35 PM 24.8 °F 9.6 °F 24.8 °F 100% 30.12 in 1.8 mi North 23.0 mph 27.6 mph N/A   Overcast
3:55 PM 26.6 °F 12.7 °F 24.8 °F 93% 30.13 in 2.0 mi North 20.7 mph 27.6 mph N/A   Overcast
4:15 PM 24.8 °F 10.3 °F 23.0 °F 93% 30.14 in 2.0 mi North 20.7 mph 25.3 mph N/A   Overcast
4:35 PM 24.8 °F 11.5 °F 23.0 °F 93% 30.15 in 2.0 mi NNW 17.3 mph 24.2 mph N/A   Overcast
4:55 PM 24.8 °F 11.1 °F 23.0 °F 93% 30.15 in 2.5 mi North 18.4 mph - N/A   Overcast
5:15 PM 24.8 °F 11.1 °F 23.0 °F 93% 30.15 in 2.5 mi North 18.4 mph 26.5 mph N/A   Overcast
5:35 PM 24.8 °F 11.1 °F 23.0 °F 93% 30.17 in 3.0 mi North 18.4 mph 24.2 mph N/A   Overcast
5:55 PM 24.8 °F 11.1 °F 23.0 °F 93% 30.18 in 3.5 mi NNW 18.4 mph 25.3 mph N/A   Overcast
6:15 PM 23.0 °F 8.7 °F 23.0 °F 100% 30.18 in 5.0 mi NNW 18.4 mph 23.0 mph N/A   Overcast
6:35 PM 23.0 °F 9.2 °F 23.0 °F 100% 30.20 in 5.0 mi NNW 17.3 mph - N/A   Overcast
6:55 PM 23.0 °F 8.7 °F 21.2 °F 93% 30.20 in 5.0 mi NNW 18.4 mph - N/A   Overcast
7:15 PM 23.0 °F 7.6 °F 21.2 °F 93% 30.20 in 7.0 mi NNW 21.9 mph 27.6 mph N/A   Overcast
7:35 PM 23.0 °F 8.7 °F 21.2 °F 93% 30.20 in 7.0 mi NNW 18.4 mph 25.3 mph N/A   Overcast
7:55 PM 21.2 °F 7.3 °F 19.4 °F 93% 30.21 in 7.0 mi NNW 16.1 mph 26.5 mph N/A   Overcast
8:15 PM 21.2 °F 6.8 °F 17.6 °F 86% 30.22 in 10.0 mi NNW 17.3 mph 26.5 mph N/A   Overcast
8:35 PM 21.2 °F 6.4 °F 17.6 °F 86% 30.23 in 10.0 mi NNW 18.4 mph 24.2 mph N/A   Overcast
8:55 PM 21.2 °F 7.3 °F 17.6 °F 86% 30.24 in 10.0 mi NNW 16.1 mph 25.3 mph N/A   Overcast
9:15 PM 21.2 °F 7.3 °F 17.6 °F 86% 30.24 in 10.0 mi NNW 16.1 mph 21.9 mph N/A   Overcast
9:35 PM 19.4 °F 4.5 °F 15.8 °F 86% 30.25 in 10.0 mi NNW 17.3 mph 25.3 mph N/A   Overcast
9:55 PM 19.4 °F 5.5 °F 15.8 °F 86% 30.25 in 10.0 mi NNW 15.0 mph 23.0 mph N/A   Overcast
10:15 PM 19.4 °F 3.2 °F 15.8 °F 86% 30.25 in 10.0 mi NNW 20.7 mph 27.6 mph N/A   Overcast
10:35 PM 19.4 °F 4.5 °F 14.0 °F 80% 30.25 in 10.0 mi NNW 17.3 mph 28.8 mph N/A   Mostly Cloudy
10:55 PM 19.4 °F 3.6 °F 14.0 °F 80% 30.25 in 10.0 mi NNW 19.6 mph 27.6 mph N/A   Mostly Cloudy
11:15 PM 19.4 °F 2.5 °F 14.0 °F 80% 30.24 in 10.0 mi NNW 23.0 mph 27.6 mph N/A   Overcast
11:35 PM 17.6 °F 0.5 °F 14.0 °F 86% 30.24 in 10.0 mi NNW 21.9 mph 27.6 mph N/A   Overcast
11:55 PM 17.6 °F 1.3 °F 14.0 °F 86% 30.24 in 10.0 mi NNW 19.6 mph 28.8 mph N/A   Overcast